Weather Roundup
Issued by NWS Chicago, IL

Home | Current Version | Previous Version | Text Only | Print | Product List | Glossary Off
Versions: 1 2 3 4 5 6 7 8 9 10 11 12 13 14 15 16 17 18 19 20 21 22 23 24 25 26 27 28 29 30 31 32 33 34 35 36 37 38 39 40 41 42 43 44 45 46 47 48 49 50

000
NZUS59 KLOT 310810
HRRLOT

CHICAGO AREA WEATHER ROUNDUP
NATIONAL WEATHER SERVICE CHICAGO/ROMEOVILLE IL
200 AM CST SAT JAN 31 2015

NOTE: "FAIR" INDICATES FEW OR NO CLOUDS BELOW 12,000 FEET WITH NO
SIGNIFICANT WEATHER AND/OR OBSTRUCTIONS TO VISIBILITY.

* THESE STATIONS ARE NOT UNDER NWS QUALITY CONTROL. THEY ALSO MAY NOT
  REPORT WEATHER SUCH AS PRECIPITATION OR FOG.

ILZ005-006-012>014-019>023-310900-
NORTHEAST ILLINOIS

CITY           SKY/WX    TMP DP  RH WIND       PRES   REMARKS
OHARE          CLOUDY    23  16  74 SW5       30.30F WCI  17
MIDWAY         CLOUDY    26  17  68 SW8       30.31F WCI  18
AURORA         CLOUDY    23  16  74 S3        30.31F
LANSING*       CLOUDY    24  20  85 SW8       30.32F WCI  15
JOLIET*        CLOUDY    24  20  87 S3        30.32F
WAUKEGAN       CLOUDY    21  15  78 SW5       30.29F WCI  15
DUPAGE AIRPORT CLOUDY    23  17  78 SW6       30.30F WCI  16
WHEELING       CLOUDY    23  15  71 SW3       30.32S
KANKAKEE*      CLOUDY    26  22  86 S9        30.34S WCI  16
MORRIS*        CLOUDY    25  22  91 SW6       30.31F WCI  18
LEWIS AIRPORT* CLOUDY    25  20  83 SW5       30.31F WCI  19
NORTHERLY IS     N/A     26  17  68 S6          N/A  WCI  20
$$

WIZ051-052-058>065-066-070>072-310900-
SOUTHEAST WISCONSIN

CITY           SKY/WX    TMP DP  RH WIND       PRES   REMARKS
MILWAUKEE      MOCLDY    21  13  71 SW8       30.28F WCI  11
KENOSHA*       CLOUDY    21  15  78 S5        30.29F WCI  15
RACINE*        CLOUDY    21  14  74 SW6       30.31S WCI  13
BURLINGTON     CLOUDY    18  14  86 CALM      30.28S
WAUKESHA       CLOUDY    18  12  79 S3        30.26F
WEST BEND      CLOUDY    21  14  73 SW6       30.23F WCI  14
$$

INZ001>003-010>013-019-020-310900-
NORTHWEST INDIANA

CITY           SKY/WX    TMP DP  RH WIND       PRES   REMARKS
GARY*          CLOUDY    26  17  70 S3        30.33F
MICHIGAN CITY* NOT AVBL
RENSSELAER*    NOT AVBL
VALPARAISO     MOCLDY    20  16  84 SW3       30.33F
$$

LMZ740>746-310900-
SOUTHERN LAKE MICHIGAN

STATION/POSITION TIME  SKY/WX   TEMP WIND        PRES    VSBY
                                AIR  DIR/SP/G
                 (UTC)          (F)  (DEG/KT/KT) (MB)    (MI)
HARRISON CRIB    0800            25  190/ 13/ 16   N/A
BURNHAM HARBOR   0800            26  210/  5/  8   N/A
CALUMET HARBOR   0800            24  180/  4/  7   N/A
BURNS HARBOR     NOT AVBL
MICHIGAN CITY    0800            23  160/ 10/ 14   N/A
$$

ABBREVIATIONS USED IN REMARKS
   TC - TEMPERATURE IN CELSIUS
  WCI - WIND CHILL INDEX
   HX - HEAT INDEX
  VSB - VISIBILITY
$$


USA.gov is the U.S. government's official web portal to all federal, state and local government web resources and services.